Location: Newark
(53.7833°N, 9.4833°E)
Time: 19:38:48
(UTC+00:00)

Envisat - Pass Details

Date: 15 December 2019
Orbit: 764 x 766 km, 98.1° (Epoch: 25 January)

Event Time Altitude Azimuth Distance (km) Brightness Sun altitude
Rises 06:30:36 0° 14° (NNE) 3,248 6.1 -8.5°
Reaches altitude 10° 06:32:55 10° 15° (NNE) 2,317 5.4 -8.2°
Maximum altitude 06:38:02 88° 287° (WNW) 774 3.0 -7.5°
Drops below altitude 10° 06:43:07 10° 198° (SSW) 2,300 5.7 -6.8°
Sets 06:45:25 0° 198° (SSW) 3,221 6.4 -6.6°
